HMU-SAT2

Last updated on Wed Aug 26 2026 00:02:34 GMT+0000 (Coordinated Universal Time)

1 67688U 98067YE 26237.37458183 .00101701 00000+0 70986-3 0 9996 2 67688 51.6256 300.7834 0007359 42.0564 318.0998 15.73469959 31079
UTC large
Height (km)
Speed (km/s)
/
Latitude / Longitude
Inclination (degrees)
Orbital Period (minutes)
Azimuth
Elevation
Range (km)
Doppler Factor

Next 0 passes for location: London (51.5072 / 0.1276)

No passes found over London.
HMU-SAT2